Погода в Плахтиевке

Украина / Одесская область     46°05′39″N   29°43′12″E
темп.,
°C
ветер,
м/с
пор.,
м/с
влажн.,
%
обл.,
%
осадки,
мм/ч
давл.,
гПа
погр.,
м
5 марта, пт
пт523:00+8юз497343 0.0 1013197
02:00+6юз467935 0.0 1012105
05:00+6з336733 0.0 101233
08:00+7с476919 0.0 1012212
11:00+12в225423 0.0 1012448
14:00+15юз344153 0.0 10111014
17:00+14ююз2246100 0.0 101062
20:00+10юз345463 0.0 101272
6 марта, сб
сб623:00+9сз8137267 0.0 1013427
02:00+6ссз7127767 0.0 1016609
05:00+4ссз8107496 0.0 1019991
08:00+2с8126498 0.0 1023836
11:00+4с7941100 0.0 10251278
14:00+5ссз783899 0.0 10251706
17:00+5с673358 0.0 10271925
20:00+2с354429 0.0 1028106
7 марта, вс
вс723:00+1сз11470 0.0 103022
02:000зсз36620 0.0 1030132
05:00−1сз35650 0.0 1029119
08:00+1зсз23520 0.0 1029235
11:00+5зюз68400 0.0 10271419
14:00+7зюз68370 0.0 10251666
17:00+7зюз68390 0.0 10221470
20:00+4ююз511520 0.0 1021326
8 марта, пн
пн823:00+2ююз510670 0.0 1020241
02:00+1юз4107038 0.0 1019228
05:000юз368412 0.0 1018137
08:00+2зюз23766 0.0 1018158
11:00+6юв114722 0.0 1017663
14:00+8ю223758 0.0 10161248
17:00+7ююв444698 0.0 1014642
20:00+4ююв236764 0.0 101544
9 марта, вт
вт923:00+4ююз227867 0.0 101522
02:00+3сз118071 0.0 101522
05:00+1с510720 0.0 1016253
08:00+2с6107023 0.0 1018498
11:00+5с784527 0.0 1020860
14:00+6с674013 0.0 10201292
17:00+5с56360 0.0 10201462
20:00+2ссв48510 0.0 1022352